MST,Max TemperatureF,Mean TemperatureF,Min TemperatureF,Max Dew PointF,MeanDew PointF,Min DewpointF,Max Humidity, Mean Humidity, Min Humidity, Max Sea Level PressureIn, Mean Sea Level PressureIn, Min Sea Level PressureIn, Max VisibilityMiles, Mean VisibilityMiles, Min VisibilityMiles, Max Wind SpeedMPH, Mean Wind SpeedMPH, Max Gust SpeedMPH,PrecipitationIn, CloudCover, Events, WindDirDegrees
2012-12-1,67,49,31,28,21,12,83,35,13,30.01,29.94,29.84,10,10,7,23,6,38,0.00,1,,255
2012-12-2,65,46,28,24,17,8,76,40,11,30.00,29.82,29.61,10,10,7,20,3,32,0.00,0,,217
2012-12-3,56,42,28,27,14,0,53,30,12,30.19,29.97,29.65,10,10,7,21,7,28,0.00,0,,175
2012-12-4,53,36,20,17,13,6,75,47,15,30.32,30.25,30.15,10,10,10,9,2,,0.00,0,,171
2012-12-5,68,55,41,26,22,13,53,32,12,29.88,29.87,29.85,10,10,10,21,12,30,0.00,0,,244
2012-12-6,50,39,28,34,29,25,89,62,36,30.05,29.93,29.86,10,10,10,10,3,16,0.00,2,,102
2012-12-7,52,38,23,30,23,18,94,64,25,29.93,29.85,29.79,10,10,10,17,5,21,0.00,2,,124
2012-12-8,50,34,19,25,17,6,93,58,21,29.88,29.74,29.61,10,10,4,28,6,40,0.00,1,,291
2012-12-9,29,20,10,7,1,-3,68,43,28,30.17,30.07,29.88,10,10,10,22,9,30,0.00,1,,26
2012-12-10,39,22,6,25,5,0,94,49,19,29.99,29.88,29.80,10,10,1,21,5,26,0.00,2,Snow,295
2012-12-11,43,25,7,24,14,6,97,64,25,29.99,29.86,29.76,10,10,2,13,3,18,0.00,1,Snow,193
2012-12-12,42,35,28,14,13,11,55,44,28,29.76,29.74,29.73,10,10,10,9,2,,0.00,0,,90
2012-12-13,49,36,20,19,17,14,79,48,27,30.00,29.93,29.88,10,10,10,7,2,,0.00,0,,11
2012-12-14,43,30,17,24,17,14,85,64,30,29.86,29.65,29.50,10,10,10,7,1,,0.00,1,,161
2012-12-15,45,34,24,27,22,17,92,66,41,29.72,29.67,29.60,10,10,10,10,3,16,0.00,2,,358
2012-12-16,41,32,24,31,23,8,99,73,32,29.78,29.71,29.65,10,8,2,10,3,16,0.00,3,,169
2012-12-17,50,36,23,23,14,8,60,35,24,29.74,29.64,29.56,10,10,3,29,10,40,0.00,0,,258
2012-12-18,43,34,25,32,24,11,93,69,35,29.77,29.70,29.64,10,10,10,17,5,25,0.00,4,,12
2012-12-19,25,15,5,23,13,-1,96,78,51,30.10,29.88,29.68,10,8,1,26,8,34,0.00,5,Snow,3
2012-12-20,48,26,5,11,3,-2,74,36,13,30.18,30.14,30.09,10,10,10,17,5,24,0.00,0,,209
2012-12-21,52,34,15,17,11,6,78,50,16,30.19,30.11,30.03,10,10,10,8,2,,0.00,0,,186
2012-12-22,49,30,11,15,10,6,80,54,18,30.05,29.98,29.88,10,10,10,7,2,,0.00,0,,190
2012-12-23,54,33,12,18,10,3,79,42,15,29.94,29.88,29.82,10,10,4,25,7,37,0.00,0,,248
2012-12-24,36,26,16,24,17,14,96,74,44,29.93,29.80,29.69,10,8,2,12,3,,0.00,5,Snow,7
2012-12-25,18,8,-3,17,5,-7,93,83,63,30.20,30.10,29.94,10,7,1,10,4,,0.00,3,Snow,70
2012-12-26,21,9,-3,14,7,-6,95,85,69,29.99,29.75,29.61,10,8,5,7,1,,0.00,2,Snow,38
2012-12-27,22,12,3,18,11,1,94,87,76,29.86,29.72,29.61,10,6,4,5,1,,0.00,4,Snow,211
2012-12-28,33,16,0,18,5,-2,96,73,32,30.07,29.96,29.86,10,8,5,8,1,,0.00,2,,177
2012-12-29,28,14,-1,11,3,-5,87,69,37,30.14,30.04,29.89,10,10,10,6,2,,0.00,0,,225
2012-12-30,30,18,6,16,9,1,85,65,37,30.00,29.92,29.86,10,10,10,10,3,,0.00,2,,354
2012-12-31,24,16,6,17,13,5,94,84,74,30.02,29.97,29.93,10,10,5,6,1,,0.00,5,,11